This demonstration page uses our WeatherBlox Daily Observations layout. Learn more.

Left ArrowRight Arrow

Hourly Observations for April 28, 2015

Temp ( °F °C ) Dew Point ( °F °C ) Humidity (%) Winds ( mph kmh ) Pressure ( in mb ) Visibility ( mi km ) Precip ( " mm )
12:53 am 00:53 Clear 48 8.9 31 -0.6 52 52 SSE 6 9 30.18 1022 10 16 0.00 0.00
1:53 am 01:53 Clear 44 6.7 31 -0.6 60 60 Calm 30.18 1022 10 16 0.00 0.00
2:53 am 02:53 Clear 36 2.2 29 -1.7 76 76 Calm 30.19 1022 10 16 0.00 0.00
3:53 am 03:53 Clear 36 2.2 29 -1.7 76 76 Calm 30.18 1022 10 16 0.00 0.00
4:53 am 04:53 Clear 37 2.8 29 -1.7 73 73 NNE 3 6 30.19 1023 10 16 0.00 0.00
5:53 am 05:53 Clear 36 2.2 29 -1.7 76 76 Calm 30.20 1023 10 16 0.00 0.00
6:53 am 06:53 Sunny 37 2.8 31 -0.6 79 79 E 5 7 30.19 1022 10 16 0.00 0.00
7:53 am 07:53 Sunny 46 7.8 33 0.6 61 61 E 6 9 30.17 1022 10 16 0.00 0.00
8:53 am 08:53 Sunny 52 11.1 35 1.7 53 53 VRB 3 6 30.18 1022 10 16 0.00 0.00
9:53 am 09:53 Sunny 58 14.4 35 1.7 42 42 E 5 7 30.16 1021 10 16 0.00 0.00
10:53 am 10:53 Sunny 63 17.2 34 1.1 34 34 Calm 30.13 1020 10 16 0.00 0.00
11:53 am 11:53 Sunny 66 18.9 34 1.1 30 30 VRB 5 7 30.11 1020 10 16 0.00 0.00
12:53 pm 12:53 Sunny 70 21.1 36 2.2 29 29 VRB 6 9 30.06 1018 10 16 0.00 0.00
1:53 pm 13:53 Sunny 71 21.7 36 2.2 28 28 Calm 30.04 1017 10 16 0.00 0.00
2:53 pm 14:53 Sunny 73 22.8 35 1.7 25 25 NNE 3 6 30.01 1016 10 16 0.00 0.00
3:53 pm 15:53 Sunny 74 23.3 35 1.7 24 24 VRB 5 7 29.98 1015 10 16 0.00 0.00
4:53 pm 16:53 Sunny 75 23.9 35 1.7 23 23 SE 9 15 29.96 1015 10 16 0.00 0.00
5:53 pm 17:53 Sunny 76 24.4 36 2.2 23 23 VRB 6 9 29.94 1014 10 16 0.00 0.00
6:53 pm 18:53 Sunny 75 23.9 35 1.7 23 23 NE 5 7 29.92 1013 10 16 0.00 0.00
7:53 pm 19:53 Sunny 72 22.2 38 3.3 29 29 E 5 7 29.90 1012 10 16 0.00 0.00
8:53 pm 20:53 Clear 59 15 36 2.2 42 42 S 5 7 29.91 1013 10 16 0.00 0.00
9:53 pm 21:53 Clear 61 16.1 33 0.6 35 35 SE 8 13 29.90 1013 10 16 0.00 0.00
10:53 pm 22:53 Clear 56 13.3 33 0.6 42 42 NE 5 7 29.89 1012 10 16 0.00 0.00
11:53 pm 23:53 Clear 51 10.6 33 0.6 50 50 ENE 8 13 29.88 1012 10 16 0.00 0.00

Powered by AerisWeather